TimePST,TemperatureF,Dew PointF,Humidity,Sea Level PressureIn,VisibilityMPH,Wind Direction,Wind SpeedMPH,Gust SpeedMPH,PrecipitationIn,Events,Conditions,WindDirDegrees,DateUTC
12:53 AM,32.0,28.0,85,29.82,10.0,North,10.4,-,N/A,,Overcast,350,2013-03-07 08:53:00
1:53 AM,32.0,28.0,85,29.82,10.0,North,9.2,-,N/A,,Overcast,360,2013-03-07 09:53:00
2:53 AM,30.9,28.0,89,29.80,9.0,North,13.8,-,N/A,,Mostly Cloudy,360,2013-03-07 10:53:00
3:33 AM,30.2,28.4,93,29.89,8.0,North,15.0,-,N/A,,Overcast,10,2013-03-07 11:33:00
3:41 AM,30.2,28.4,93,29.89,8.0,North,16.1,-,N/A,,Overcast,10,2013-03-07 11:41:00
3:53 AM,28.9,27.0,92,29.83,9.0,North,16.1,24.2,N/A,,Overcast,10,2013-03-07 11:53:00
4:18 AM,28.4,26.6,93,29.91,9.0,NNE,15.0,20.7,N/A,,Overcast,20,2013-03-07 12:18:00
4:53 AM,28.4,26.6,93,29.91,5.0,NNE,12.7,-,N/A,Snow,Light Snow,20,2013-03-07 12:53:00
5:53 AM,28.0,26.1,92,29.87,10.0,NNE,16.1,-,0.00,,Overcast,20,2013-03-07 13:53:00
6:29 AM,28.4,26.6,93,29.92,10.0,NNE,13.8,-,N/A,,Overcast,20,2013-03-07 14:29:00
6:53 AM,28.0,26.1,92,29.91,10.0,NNE,13.8,-,N/A,,Overcast,20,2013-03-07 14:53:00
7:53 AM,28.9,26.1,89,29.91,10.0,NNE,10.4,-,N/A,,Overcast,20,2013-03-07 15:53:00
8:16 AM,28.4,26.6,93,29.93,10.0,NNE,12.7,-,N/A,,Overcast,20,2013-03-07 16:16:00
8:53 AM,30.9,26.1,82,29.91,10.0,NNE,15.0,-,N/A,,Overcast,20,2013-03-07 16:53:00
9:45 AM,33.8,26.6,75,29.92,10.0,NNE,11.5,-,N/A,,Mostly Cloudy,20,2013-03-07 17:45:00
9:53 AM,34.0,27.0,75,29.89,10.0,NNE,11.5,-,N/A,,Scattered Clouds,20,2013-03-07 17:53:00
10:53 AM,36.0,27.0,70,29.88,10.0,North,9.2,-,N/A,,Mostly Cloudy,10,2013-03-07 18:53:00
11:53 AM,37.9,27.0,65,29.84,10.0,NNE,11.5,-,N/A,,Overcast,20,2013-03-07 19:53:00
12:53 PM,42.1,25.0,51,29.80,10.0,SE,15.0,21.9,N/A,,Scattered Clouds,130,2013-03-07 20:53:00
1:53 PM,44.1,23.0,43,29.77,10.0,SE,15.0,25.3,N/A,,Overcast,140,2013-03-07 21:53:00
2:53 PM,44.1,16.0,32,29.78,10.0,South,17.3,23.0,N/A,,Mostly Cloudy,170,2013-03-07 22:53:00
3:53 PM,42.1,19.0,40,29.79,10.0,SSE,13.8,-,N/A,,Overcast,160,2013-03-07 23:53:00
4:53 PM,41.0,19.9,43,29.81,10.0,South,15.0,-,N/A,,Overcast,170,2013-03-08 00:53:00
5:53 PM,37.9,21.9,53,29.83,10.0,SSE,8.1,-,N/A,,Overcast,150,2013-03-08 01:53:00
6:53 PM,37.9,19.9,48,29.83,10.0,SSE,11.5,-,N/A,,Clear,160,2013-03-08 02:53:00
7:53 PM,36.0,21.0,55,29.84,10.0,South,6.9,-,N/A,,Clear,180,2013-03-08 03:53:00
8:53 PM,35.1,21.9,59,29.84,10.0,South,8.1,-,N/A,,Scattered Clouds,170,2013-03-08 04:53:00
9:53 PM,35.6,21.2,56,29.86,10.0,SSE,12.7,-,N/A,,Overcast,160,2013-03-08 05:53:00
10:53 PM,34.0,26.1,73,29.83,10.0,SSE,12.7,-,N/A,,Overcast,150,2013-03-08 06:53:00
11:53 PM,32.0,28.9,88,29.82,4.0,South,8.1,-,0.00,Snow,Light Snow,170,2013-03-08 07:53:00